Location: Guadanolo
(41.9167°N, 12.9333°E)
Time: 05:40:56
(UTC+00:00)

Cosmos 864 Rocket - Pass Details

Date: 16 September 2019
Orbit: 954 x 991 km, 82.9° (Epoch: 20 October)

Event Time Altitude Azimuth Distance (km) Brightness Sun altitude
Rises 19:49:04 0° 351° (N) 3,661 8.1 -27.6°
Reaches altitude 10° 19:51:34 10° 352° (N) 2,715 7.3 -28.0°
Maximum altitude 19:57:48 86° 264° (W) 982 4.4 -29.0°
Enters shadow 19:58:18 77° 192° (SSW) 1,002 4.4 -29.0°
